Wind_Speed
57 57 54 50 44 38 33 32 29 29 27 30 37 43 46 50 55 60 62 69 78 88 100 106 111 113 113 115 116 112 108 107 105 100 87 81 82 74 71 73 57 76 70 71
58 55 56 52 53 53 46 35 36 34 32 30 31 39 40 46 50 54 57 63 70 76 87 95 106 112 110 107 110 107 105 106 101 98 101 83 79 73 63 69 73 67 64 64
59 57 55 53 53 49 49 41 37 36 36 34 32 35 36 39 44 50 53 57 61 68 77 84 92 101 104 102 104 102 102 102 99 97 98 86 80 76 71 64 61 65 62 62
58 60 60 59 57 51 52 53 45 42 35 34 31 34 32 29 38 43 46 48 55 65 71 74 78 83 96 102 101 98 97 100 97 96 93 92 80 76 71 64 68 78 69 63
58 61 62 59 57 54 54 52 53 49 39 33 32 34 29 29 34 38 37 44 53 53 59 63 66 74 87 98 101 98 94 98 95 92 87 86 87 80 70 70 74 70 65 62
59 62 62 61 60 59 57 50 47 46 34 29 30 29 26 29 29 25 33 36 42 46 54 55 59 69 81 91 99 96 91 95 95 91 86 88 87 82 73 74 73 65 69 72
59 62 62 59 70 66 63 56 44 42 32 24 25 23 23 21 18 18 28 33 37 41 47 50 55 63 72 85 92 89 89 95 93 92 89 93 86 79 79 75 74 73 70 63
57 59 62 58 59 59 64 62 50 39 33 22 18 17 16 13 13 21 25 29 33 37 40 45 53 58 65 79 90 89 89 92 93 90 87 94 87 76 77 78 71 66 66 67
58 60 65 66 64 62 67 63 54 47 34 23 15 13 12 7 9 12 16 21 26 31 36 42 50 57 67 78 89 86 90 90 94 84 87 88 87 70 63 67 69 65 61 58
64 61 63 68 72 71 65 64 54 43 34 24 15 9 6 5 1 5 11 16 21 27 32 40 47 53 67 81 87 89 92 93 93 87 87 94 88 76 70 66 61 64 61 60
62 62 67 67 66 70 67 67 53 42 34 29 20 16 12 9 7 9 11 16 23 28 34 39 45 59 76 85 91 93 95 96 92 84 93 90 76 78 71 67 59 56 55 61
58 58 61 66 71 74 75 69 57 47 42 33 25 21 18 15 15 18 19 24 30 35 38 49 61 74 82 94 92 92 92 94 83 90 92 86 88 83 75 65 65 63 60 60
54 53 53 63 75 82 80 66 61 53 51 41 34 26 21 21 24 26 30 33 38 43 51 60 79 93 98 92 90 93 95 95 93 93 88 88 85 82 80 72 71 64 62 67
56 50 54 62 68 75 76 75 67 61 56 46 33 31 28 28 29 36 41 43 49 54 71 86 92 92 91 88 91 96 98 99 93 94 91 91 87 78 75 72 77 65 66 67
60 46 48 54 59 65 68 74 71 68 58 47 34 37 32 34 36 44 52 50 58 76 89 87 92 89 95 85 97 95 101 95 91 89 88 87 88 71 75 79 76 72 70 73
58 51 41 45 49 54 56 64 67 67 61 46 33 34 30 33 44 52 59 61 75 90 89 77 85 91 102 92 78 94 97 95 90 88 89 87 82 76 71 70 72 74 79 79
56 53 39 37 38 45 48 51 60 61 60 47 29 30 34 39 53 64 68 75 77 87 83 76 76 82 91 97 98 99 96 95 94 90 86 80 81 79 82 81 73 77 78 78
53 51 44 28 27 28 36 39 44 52 55 54 44 31 34 48 56 71 72 69 69 71 71 69 67 80 86 89 92 92 93 92 90 85 83 83 81 85 81 83 83 81 81 82
50 50 48 37 22 23 26 30 31 36 40 43 48 44 41 43 46 58 69 65 64 61 60 66 68 77 81 85 86 89 88 86 84 84 85 84 85 90 87 87 86 87 84 87
48 49 47 42 32 14 14 19 21 22 26 29 31 34 34 33 32 30 28 31 44 58 53 46 56 63 72 79 80 80 81 81 81 82 83 87 88 94 99 99 98 102 105 105
47 45 45 42 36 26 11 10 14 15 14 15 18 22 24 24 25 24 22 23 24 24 27 36 47 51 57 62 67 73 78 81 81 81 84 88 90 94 98 102 104 109 111 112
43 44 44 42 38 33 16 7 7 9 9 9 8 8 10 10 14 17 17 16 16 18 23 29 34 38 44 52 59 65 72 76 79 83 84 89 93 97 99 104 110 114 119 119
41 43 42 41 36 33 24 8 6 7 6 6 6 6 4 3 4 6 8 10 12 13 15 18 23 28 35 41 47 53 61 67 73 79 83 89 92 96 103 105 112 116 119 122
37 38 43 39 37 31 27 18 5 5 4 4 8 7 7 8 6 5 5 6 9 12 15 19 22 25 28 31 35 40 46 54 62 68 75 80 91 99 101 105 112 115 122 125
34 35 37 39 35 32 26 25 21 13 9 4 6 8 11 12 11 10 11 12 13 14 16 18 20 22 25 28 32 36 41 46 50 55 61 67 73 79 88 98 106 115 119 122
32 33 33 36 38 33 27 23 22 21 17 12 6 2 7 10 14 16 18 19 20 21 22 23 25 27 29 31 34 37 40 44 48 52 56 60 65 69 74 79 85 91 96 100
Wind_Direction
337 334 333 332 330 326 324 324 325 317 317 303 286 270 263 255 249 248 243 239 236 235 233 231 228 227 228 226 227 226 225 222 218 213 202 202 202 200 217 219 227 236 240 244
337 335 338 337 338 337 337 332 336 323 316 302 292 279 265 259 253 249 245 239 237 235 234 230 230 228 225 227 228 225 222 222 219 213 210 210 202 198 213 221 225 232 235 243
342 341 344 344 339 333 334 344 342 335 322 301 293 280 274 263 257 251 245 239 237 234 231 228 228 226 224 224 226 225 221 220 219 214 211 205 203 206 214 213 217 225 236 242
346 344 343 340 336 339 343 340 342 339 327 307 294 287 279 265 253 251 244 238 233 230 231 230 225 222 220 219 221 221 219 217 217 215 211 208 204 205 216 218 220 226 235 237
348 346 344 343 340 344 345 343 344 343 331 310 296 290 283 266 252 247 241 231 231 230 228 226 222 217 214 213 216 216 216 213 214 213 207 206 206 204 207 210 216 219 228 234
348 346 344 345 350 348 349 352 351 345 334 315 299 291 276 261 259 251 240 230 227 222 222 219 215 212 209 206 208 212 211 209 209 209 203 200 201 202 209 214 218 223 228 233
348 346 347 350 355 352 352 350 353 351 344 326 307 294 279 273 264 241 233 221 215 212 214 212 207 206 201 202 201 204 205 205 204 205 201 198 200 207 212 214 222 223 226 232
342 348 350 351 353 355 356 354 355 357 354 338 319 304 293 286 253 237 231 219 208 206 204 200 198 196 190 195 195 199 201 202 202 202 200 198 202 206 210 216 219 224 231 231
346 353 356 353 358 3 358 359 2 0 357 352 349 335 327 318 273 251 232 220 205 197 192 193 189 184 183 185 189 192 196 197 196 201 196 195 197 202 211 220 224 223 228 232
354 353 356 359 358 4 4 7 6 4 4 7 11 17 23 28 27 212 200 196 189 186 181 181 178 176 176 177 180 187 192 192 193 198 192 196 200 207 209 211 215 221 224 228
353 353 355 355 360 7 12 11 14 19 20 23 27 44 62 78 103 129 144 158 161 165 165 164 164 168 170 174 177 184 189 190 196 194 193 199 196 202 209 208 213 221 225 230
352 355 354 359 3 10 13 11 21 28 32 31 40 49 60 75 95 105 125 138 143 145 145 153 160 159 162 170 175 182 186 193 197 193 195 197 196 203 212 212 219 222 229 230
357 356 0 3 6 10 10 18 24 33 36 35 44 54 69 88 98 110 116 123 126 133 140 153 158 159 162 169 176 182 187 194 195 195 197 197 196 204 216 220 221 225 230 230
3 359 8 7 11 10 12 16 28 35 37 33 48 62 75 84 101 108 111 121 128 136 146 152 156 157 161 169 176 185 191 196 195 194 197 197 204 213 212 218 223 224 226 229
3 5 12 11 13 15 14 19 26 32 33 33 49 71 82 97 106 112 116 127 133 139 147 153 153 157 164 167 183 190 196 198 197 196 201 201 208 209 215 219 225 226 225 226
4 7 11 15 13 18 18 26 28 35 36 31 44 83 97 108 116 119 123 131 141 142 145 154 159 164 169 174 181 193 194 196 195 199 203 207 213 209 212 217 222 225 229 229
6 4 11 18 18 25 20 28 36 37 42 41 53 91 110 120 125 125 132 135 142 144 148 159 167 172 177 183 189 191 197 198 202 203 205 210 215 219 224 224 227 228 228 232
9 5 8 17 25 24 25 31 39 47 51 56 55 79 114 125 131 129 131 137 142 149 156 159 173 178 184 189 194 196 200 202 205 206 210 213 214 215 221 224 224 228 232 236
8 8 5 11 25 33 36 35 41 52 58 68 80 84 87 107 119 132 140 145 150 157 165 175 179 183 189 194 199 203 206 209 212 212 214 216 214 216 217 221 225 231 235 238
6 8 6 6 12 33 39 48 47 50 61 73 78 90 95 100 107 113 127 146 158 165 167 183 188 193 195 199 203 208 211 215 219 219 220 221 222 222 224 228 232 237 240 244
8 8 8 6 5 12 56 62 64 65 59 72 74 87 96 105 116 122 133 146 162 180 193 197 197 202 204 208 211 214 216 220 225 227 228 228 230 233 236 237 237 241 243 248
6 7 7 7 6 10 28 80 93 93 83 72 92 96 92 98 114 128 143 156 171 186 196 203 213 220 221 221 222 222 223 225 228 233 234 235 237 240 242 244 246 247 248 249
3 7 7 7 6 10 21 59 77 133 147 131 125 113 112 144 163 169 170 173 182 195 208 217 222 225 228 233 236 237 237 236 237 239 241 245 247 247 247 249 251 253 254 255
2 4 8 6 5 9 14 22 30 120 96 153 181 187 188 194 195 200 215 211 209 213 216 221 224 229 234 237 239 242 243 245 247 249 248 251 252 252 255 256 258 259 259 260
5 4 6 7 6 7 10 25 24 20 13 13 198 203 209 217 223 229 234 237 238 239 242 245 246 247 247 246 245 246 247 249 251 253 255 257 258 260 261 262 262 263 266 268
7 3 3 5 5 6 8 22 28 24 27 26 17 296 245 238 233 231 232 234 239 243 247 249 252 254 256 259 260 261 261 261 261 261 260 260 261 262 263 263 263 264 266 268
Height
10402 10387 10371 10356 10343 10332 10322 10310 10300 10289 10282 10273 10264 10259 10257 10258 10257 10259 10266 10272 10282 10294 10308 10326 10344 10363 10378 10402 10424 10454 10482 10504 10528 10558 10575 10588 10603 10611 10622 10634 10634 10643 10649 10648
10396 10381 10365 10348 10333 10318 10309 10300 10289 10277 10268 10259 10252 10242 10242 10240 10241 10242 10246 10251 10257 10269 10282 10301 10316 10337 10364 10388 10409 10436 10463 10485 10512 10539 10559 10576 10587 10598 10604 10615 10625 10632 10634 10635
10387 10373 10359 10343 10330 10316 10300 10289 10278 10267 10254 10244 10237 10229 10225 10225 10225 10223 10227 10231 10239 10246 10255 10270 10289 10312 10345 10373 10393 10421 10448 10471 10497 10522 10544 10561 10574 10584 10592 10601 10608 10614 10617 10623
10380 10365 10351 10338 10321 10306 10293 10277 10265 10252 10240 10230 10221 10213 10211 10210 10207 10207 10210 10216 10221 10226 10237 10253 10271 10296 10322 10348 10377 10406 10434 10458 10483 10505 10530 10548 10561 10570 10578 10585 10591 10597 10603 10610
10376 10361 10343 10329 10314 10298 10283 10269 10252 10237 10224 10213 10207 10199 10198 10195 10191 10193 10197 10199 10205 10215 10226 10238 10256 10276 10297 10326 10362 10390 10421 10445 10470 10491 10515 10533 10547 10559 10567 10574 10579 10586 10594 10598
10373 10358 10343 10322 10307 10289 10272 10256 10243 10227 10213 10202 10195 10189 10186 10181 10182 10185 10185 10191 10197 10203 10212 10225 10241 10258 10281 10310 10343 10375 10408 10436 10458 10478 10501 10519 10536 10549 10559 10563 10570 10576 10581 10585
10372 10356 10342 10323 10299 10278 10264 10247 10232 10217 10203 10193 10186 10180 10175 10175 10175 10176 10175 10180 10184 10193 10203 10217 10232 10249 10271 10300 10332 10372 10400 10425 10449 10467 10487 10504 10524 10539 10545 10556 10562 10566 10571 10576
10372 10356 10337 10319 10300 10277 10257 10240 10222 10206 10194 10186 10180 10172 10169 10169 10169 10168 10171 10174 10180 10187 10199 10211 10225 10246 10271 10299 10334 10366 10394 10418 10440 10460 10480 10501 10516 10528 10540 10546 10553 10558 10562 10565
10368 10351 10331 10312 10298 10280 10260 10239 10217 10201 10190 10181 10175 10169 10166 10167 10167 10169 10170 10174 10180 10187 10198 10211 10228 10246 10269 10301 10336 10368 10391 10418 10433 10454 10474 10493 10510 10525 10533 10540 10542 10546 10550 10554
10362 10349 10335 10315 10292 10275 10258 10238 10216 10201 10189 10180 10173 10169 10166 10166 10166 10168 10170 10174 10182 10191 10201 10215 10234 10255 10280 10311 10342 10366 10390 10413 10428 10449 10468 10486 10502 10515 10519 10525 10531 10535 10541 10544
10367 10349 10331 10320 10302 10279 10257 10239 10220 10203 10192 10183 10177 10172 10169 10167 10168 10169 10173 10179 10186 10196 10208 10227 10245 10266 10288 10318 10341 10364 10388 10406 10422 10443 10458 10472 10491 10500 10505 10513 10519 10525 10530 10531
10373 10357 10339 10322 10304 10280 10260 10244 10225 10210 10197 10188 10181 10179 10176 10174 10174 10176 10181 10186 10194 10204 10221 10236 10251 10274 10309 10321 10349 10373 10395 10407 10423 10437 10453 10467 10480 10493 10496 10503 10509 10512 10517 10519
10378 10367 10350 10331 10305 10284 10272 10256 10232 10218 10206 10198 10195 10190 10184 10182 10183 10186 10191 10198 10206 10217 10235 10246 10262 10283 10305 10337 10359 10378 10389 10399 10408 10427 10447 10461 10475 10485 10489 10492 10496 10501 10504 10507
10385 10371 10353 10337 10323 10303 10286 10265 10249 10230 10221 10212 10212 10204 10199 10197 10197 10200 10207 10212 10219 10232 10242 10254 10282 10308 10329 10355 10370 10373 10383 10390 10407 10425 10440 10455 10467 10472 10475 10480 10486 10488 10490 10491
10389 10377 10363 10349 10339 10323 10306 10286 10269 10253 10240 10234 10230 10224 10218 10214 10216 10220 10223 10229 10239 10248 10265 10288 10302 10324 10337 10352 10358 10365 10377 10392 10405 10423 10437 10448 10454 10463 10466 10471 10472 10473 10473 10475
10394 10383 10372 10361 10351 10341 10331 10313 10291 10277 10266 10256 10248 10244 10238 10237 10235 10239 10242 10249 10260 10270 10288 10309 10319 10327 10329 10346 10352 10365 10381 10393 10408 10421 10431 10440 10449 10456 10459 10462 10462 10461 10463 10463
10399 10390 10380 10372 10362 10352 10345 10335 10320 10303 10291 10283 10274 10265 10260 10258 10256 10258 10264 10270 10284 10292 10305 10318 10333 10346 10351 10354 10360 10371 10381 10393 10403 10416 10427 10435 10441 10444 10450 10451 10452 10453 10452 10452
10404 10395 10387 10381 10374 10370 10360 10350 10343 10330 10319 10310 10305 10297 10288 10284 10281 10284 10289 10297 10308 10318 10324 10332 10342 10352 10359 10366 10373 10380 10386 10397 10406 10417 10423 10427 10431 10437 10440 10442 10444 10444 10443 10441
10407 10399 10391 10386 10380 10373 10369 10363 10356 10352 10344 10338 10332 10329 10327 10325 10323 10315 10311 10318 10324 10333 10341 10343 10348 10357 10366 10373 10379 10385 10393 10401 10407 10412 10418 10422 10426 10426 10428 10429 10429 10426 10425 10421
10410 10402 10395 10387 10384 10380 10375 10372 10367 10363 10360 10355 10351 10346 10344 10343 10345 10348 10351 10352 10350 10346 10351 10360 10366 10370 10374 10378 10383 10390 10397 10400 10404 10410 10414 10415 10419 10421 10419 10416 10414 10413 10409 10406
10414 10406 10399 10392 10385 10381 10379 10375 10373 10370 10368 10366 10362 10360 10359 10358 10356 10356 10359 10363 10367 10370 10374 10376 10376 10378 10383 10388 10391 10395 10396 10397 10399 10402 10403 10405 10406 10406 10404 10403 10402 10394 10392 10388
10417 10409 10402 10396 10389 10383 10379 10379 10377 10374 10373 10371 10369 10368 10368 10368 10368 10367 10368 10369 10371 10374 10377 10380 10383 10386 10390 10393 10395 10396 10396 10397 10397 10396 10397 10397 10397 10395 10393 10391 10386 10382 10375 10369
10419 10412 10405 10398 10393 10386 10380 10378 10378 10377 10378 10376 10375 10373 10372 10372 10372 10373 10373 10374 10375 10376 10378 10381 10383 10386 10388 10390 10392 10394 10395 10396 10395 10394 10392 10390 10388 10386 10380 10376 10372 10364 10360 10356
10420 10414 10407 10401 10395 10389 10384 10379 10377 10377 10376 10376 10376 10376 10377 10376 10375 10374 10374 10375 10376 10377 10378 10380 10381 10382 10383 10384 10385 10386 10387 10388 10388 10386 10384 10381 10376 10373 10369 10363 10358 10353 10345 10338
10422 10416 10410 10404 10398 10393 10387 10381 10378 10377 10376 10375 10374 10374 10375 10375 10375 10375 10375 10375 10376 10377 10377 10378 10378 10378 10378 10378 10378 10379 10379 10378 10377 10376 10374 10372 10367 10362 10355 10347 10339 10332 10325 10316
10422 10417 10411 10405 10400 10395 10391 10386 10382 10380 10378 10376 10374 10373 10373 10373 10373 10372 10372 10372 10372 10373 10373 10373 10373 10372 10371 10370 10369 10368 10367 10365 10363 10360 10356 10352 10347 10342 10335 10328 10323 10315 10306 10295